Regional Weather Roundup
Issued by NWS

Home | Current Version | Previous Version | Graphics & Text | Print | Product List | Glossary On
Versions: 1 2 3 4 5 6 7 8 9 10 11 12 13 14 15 16 17 18 19 20 21 22 23 24 25 26 27 28 29 30 31 32 33 34 35 36 37 38 39 40 41 42 43 44 45 46 47 48 49 50
000
ASUS43 KDMX 311407
RWRIA

WEATHER ROUNDUP FOR IOWA
NATIONAL WEATHER SERVICE DES MOINES IA
900 AM CDT THU JUL 31 2014

NOTE: "FAIR" INDICATES FEW OR NO CLOUDS BELOW 12,000 FEET WITH NO
SIGNIFICANT WEATHER AND/OR OBSTRUCTIONS TO VISIBILITY.

* - THESE STATIONS ARE NOT NWS STATIONS...THUS NOT UNDER NWS
QUALITY CONTROL.  THEY ALSO DO NOT REPORT WEATHER SUCH
AS PRECIPITATION OR FOG.

IAZ001>003-012>014-020>022-031>034-043>046-311500-
   NORTHWEST IOWA

CITY           SKY/WX    TMP DP  RH WIND       PRES   REMARKS
CARROLL *      SUNNY     68  61  77 CALM      30.12R
CHEROKEE *     SUNNY     63  59  88 CALM      30.11S
DENISON *      SUNNY     64  61  88 CALM      30.10S
LE MARS *      PTSUNNY   64  59  82 CALM      30.10S
ORANGE CITY *  SUNNY     64  55  72 CALM      30.10S
SHELDON *      MOSUNNY   64  57  77 CALM      30.09S
SIOUX CITY     CLOUDY    63  58  83 CALM      30.10R
SPENCER        MOSUNNY   65  58  78 CALM      30.10F
STORM LAKE *   SUNNY     68  61  77 SW6       30.12S
$$

IAZ055>058-069>071-079>083-090>094-311500-
   SOUTHWEST IOWA

CITY           SKY/WX    TMP DP  RH WIND       PRES   REMARKS
ATLANTIC *     SUNNY     63  57  82 CALM      30.12R
AUDUBON *      SUNNY     68  63  83 CALM      30.13R
CLARINDA *     SUNNY     63  59  88 CALM      30.14R
COUNCIL BLFS * SUNNY     68  61  77 SW5       30.11S
CRESTON *      SUNNY     66  59  77 CALM      30.13R
HARLAN  *      SUNNY     63  59  88 CALM      30.16R
LAMONI         SUNNY     69  58  67 CALM      30.12R
RED OAK *      CLOUDY    63  57  82 CALM      30.13R
SHENANDOAH *   SUNNY     64  61  88 CALM      30.13S
$$

IAZ047>049-059>061-072>074-084-311500-
   CENTRAL IOWA

CITY           SKY/WX    TMP DP  RH WIND       PRES   REMARKS
AMES           SUNNY     67  59  75 CALM      30.10S
ANKENY *       SUNNY     68  59  73 CALM      30.11R
CHARITON *     SUNNY     68  59  73 NW3       30.11S
DES MOINES     MOSUNNY   68  60  75 CALM      30.10S
GRINNELL*      MOSUNNY   66  61  82 W5        30.11R
KNOXVILLE *    SUNNY     66  59  77 CALM      30.10R
MARSHALLTOWN   SUNNY     67  61  81 NW3       30.10R
PELLA *        SUNNY     72  63  73 CALM      30.11S
PERRY *          N/A     64  61  88 NW3       30.11R
$$

IAZ004>006-015-016-023>025-035-036-311500-
   NORTH CENTRAL IOWA

CITY           SKY/WX    TMP DP  RH WIND       PRES   REMARKS
ALGONA *       MOSUNNY   66  59  77 W6        30.11R
CLARION *      MOSUNNY   66  61  82 W5        30.11R
ESTHERVILLE    MOSUNNY   67  58  72 W6        30.10S
FORT DODGE *   PTSUNNY   64  57  77 CALM      30.12R
MASON CITY     PTSUNNY   70  58  65 W6        30.10S
FOREST CITY *  PTSUNNY   64  61  88 CALM      30.10R
IOWA FALLS *     N/A     68  61  77 W3        30.11S
$$

IAZ007>011-017>019-026>030-037>042-050>054-066-311500-
   NORTHEAST IOWA

CITY           SKY/WX    TMP DP  RH WIND       PRES   REMARKS
CEDAR RAPIDS   SUNNY     67  61  81 NW6       30.09R
CHARLES CITY * SUNNY     66  59  77 W5        30.09S
CLINTON *      SUNNY     64  61  88 W5        30.10R
DECORAH *      SUNNY     64  59  82 CALM      30.07R
DUBUQUE        SUNNY     67  63  87 SW5       30.08R
MONTICELLO *   SUNNY     68  63  83 W3        30.08R
OELWEIN *      SUNNY     66  61  82 NW5       30.09S
WATERLOO       SUNNY     68  59  73 W6        30.08S
$$

IAZ064-065-067-068-078-311500-
   EAST CENTRAL IOWA

CITY           SKY/WX    TMP DP  RH WIND       PRES   REMARKS
DAVENPORT      SUNNY     67  62  84 W6        30.09R
IOWA CITY      SUNNY     70  62  76 CALM      30.10R
MT. PLEASANT * SUNNY     70  61  73 W3        30.10S
MUSCATINE *    SUNNY     68  61  77 NW3       30.09R
QUAD CITIES    SUNNY     69  61  75 W6        30.08R
$$

IAZ062-063-075>077-085>089-095>099-311500-
   SOUTHEAST IOWA

CITY           SKY/WX    TMP DP  RH WIND       PRES   REMARKS
BURLINGTON     SUNNY     69  62  78 W3        30.09S
FAIRFIELD *    SUNNY     68  63  83 NW5       30.11R
KEOKUK *       SUNNY     68  63  83 W3        30.10S
OSKALOOSA *      N/A     66  63  88 W3        30.11R
CENTERVILLE *  SUNNY     68  63  83 NW5       30.13S
OTTUMWA        SUNNY     68  61  78 W5        30.09S
WASHINGTON *   SUNNY     68  63  83 NW3       30.10R
$$

ABBREVIATIONS USED IN REMARKS
   TC - TEMPERATURES IN CELSIUS
  WCI - WIND CHILL INDEX
   HX - HEAT INDEX
  VSB - VISIBILITY
$$




USA.gov is the U.S. government's official web portal to all federal, state and local government web resources and services.